星链-36138(STARLINK-36138)

导读 | 豆包AI

STARLINK-36138是美国SpaceX星链互联网星座的卫星,于2025年12月11日发射升空,属于星链低轨互联网卫星组网的一部分。星链项目依托海量低轨卫星,旨在为全球提供高速宽带互联网服务,这颗卫星入轨后,将进一步扩充星链星座规模,服务全球用户的网络接入需求。

基本信息
目录编号:
67030
目录名称:
STARLINK-36138
国际标识:
2025-294A
轨道中心:
EARTH
卫星名称:
星链-36138
卫星全名:
星链-36138(STARLINK-36138)
卫星状态:
在轨 (已飞行93 天)
发射日期:
2025-12-11 UTC
国别 :
美国 (US)
星等 :
--
轨道信息
数据来源 国际轨道数据
星历时间: 2026-03-13T14:10:53+0800
1天前
查看轨道信息
半长轴: 6861.147km
偏心率: 0.00023
轨道倾角: 43.005°
近地点辐角 258.322°
升交点赤经 18.034°
平近点角 101.737°
近地点: 481.431km
远地点: 484.589km
周期: 94.266分钟
每日圈数: 15.275933
详细信息
固有亮度:
5
最大亮度:
2.5
卫星平台:
Starlink V1.0
覆盖范围:
全球
运营商:
太空探索技术公司
运营商所在国:
美国
制造商(研发单位):
太空探索技术公司
制造商所在国:
美国
使用方式:
暂无
卫星简介
Starlink 计划是 SpaceX 推出的全球卫星互联网项目,通过发射低轨道卫星,为全球尤其是偏远地区提供高速、低延迟的互联网服务。自 2019 年起,Starlink 已部署数千颗卫星,旨在缩小全球数字鸿沟,推动互联网普及。该项目还为军事、航空等行业提供通信支持,带来广泛经济效益。
2D轨道图
3D轨道图
轨道高度分析图
轨道倾角分析图
轨道综合分析图
查看轨道综合分析图